Weather History for Fort Smith, AR

Change the Weather History Date:

Monday, December 5, 2011

  Actual Average Record
Temperature  
Mean Temperature 40 °F 44 °F  
Max Temperature 44 °F 54 °F 79 °F (1998)
Min Temperature 35 °F 33 °F 8 °F (1886)
Degree Days  
Heating Degree Days 25 21  
Month to date heating degree days 78 103  
Since 1 July heating degree days 516 668  
Moisture  
Dew Point 30 °F    
Average Humidity 74    
Maximum Humidity 89    
Minimum Humidity 59    
Precipitation  
Precipitation 0.22 in 0.13 in 1.78 in (1913)
Month to date precipitation 1.76 0.63  
Year to date precipitation 44.88 42.80  
Sea Level Pressure  
Sea Level Pressure 30.22 in    
Wind  
Wind Speed 10 mph (NNW)    
Max Wind Speed 20 mph    
Max Gust Speed 24 mph    
Visibility 8 miles    
Events Rain , Snow    
T = Trace of Precipitation, MM = Missing Value Source: NWS Daily Summary

Daily Weather History Graph

Daily Weather History Graph

Search for Another Location

Airport:

Trip Planner

Search our weather history database for the weather conditions in past years. The results will help you decide how hot, cold, wet, or windy it might be!

Date:

Astronomy

Dec. 05, 2011 Rise Set
Actual Time 7:11 AM CST 5:04 PM CST
Civil Twilight 6:43 AM CST 5:32 PM CST
Nautical Twilight 6:11 AM CST 6:04 PM CST
Astronomical Twilight 5:40 AM CST 6:35 PM CST
Moon 1:56 PM CST (12/5) 2:40 AM CST (12/5)
Length of Visible Light 10h 49m
Length of Day
9h 53m
Waxing Gibbous, 80% of the Moon is Illuminated
Dec 5
Waxing Gibbous
Dec 10
Full
Dec 17
Last Quarter
Dec 24
New
Jan 1
First Quarter

Hourly Weather History & Observations

Time (CST) Temp. Windchill Dew Point Humidity Pressure Visibility Wind Dir Wind Speed Gust Speed Precip Events Conditions
12:53 AM 44.1 °F 39.0 °F 36.0 °F 73% 30.18 in 10.0 mi NNW 9.2 mph - 0.00 in   Overcast
1:53 AM 43.0 °F 38.2 °F 36.0 °F 76% 30.17 in 10.0 mi NNE 8.1 mph - N/A   Overcast
2:04 AM 42.8 °F 37.5 °F 35.6 °F 76% 30.17 in 10.0 mi ENE 9.2 mph - 0.00 in Rain Light Rain
2:53 AM 42.1 °F 36.1 °F 35.1 °F 76% 30.11 in 10.0 mi NE 10.4 mph - 0.00 in   Partly Cloudy
3:53 AM 42.1 °F 37.1 °F 34.0 °F 73% 30.09 in 10.0 mi NNE 8.1 mph - N/A   Overcast
4:06 AM 42.8 °F 35.8 °F 33.8 °F 70% 30.08 in 10.0 mi North 13.8 mph - N/A   Overcast
4:53 AM 41.0 °F 35.8 °F 33.8 °F 76% 30.10 in 10.0 mi North 8.1 mph - N/A   Overcast
5:53 AM 41.0 °F 35.8 °F 33.1 °F 73% 30.13 in 10.0 mi NW 8.1 mph - N/A   Overcast
6:53 AM 39.9 °F 33.9 °F 33.1 °F 77% 30.22 in 7.0 mi WNW 9.2 mph - 0.02 in Rain Light Rain
7:34 AM 37.4 °F 29.8 °F 33.8 °F 87% 30.23 in 2.5 mi NNW 11.5 mph - 0.07 in Rain Rain
7:43 AM 37.4 °F 29.8 °F 32.0 °F 81% 30.24 in 2.5 mi North 11.5 mph - 0.09 in Snow Light Snow
7:51 AM 35.6 °F 28.6 °F 32.0 °F 87% 30.25 in 1.0 mi North 9.2 mph - 0.11 in Snow Light Snow
7:53 AM 35.1 °F 28.6 °F 32.0 °F 89% 30.26 in 1.0 mi North 8.1 mph - 0.12 in Snow Light Snow
8:53 AM 35.1 °F 29.3 °F 32.0 °F 89% 30.30 in 1.5 mi NNW 6.9 mph - 0.06 in Snow Light Snow
9:29 AM 35.6 °F 28.0 °F 30.2 °F 81% 30.28 in 2.5 mi North 10.4 mph - 0.01 in Snow Light Snow
9:53 AM 35.1 °F 29.3 °F 30.9 °F 85% 30.26 in 1.8 mi North 6.9 mph - 0.02 in Snow Light Snow
9:57 AM 35.6 °F 29.9 °F 32.0 °F 87% 30.25 in 3.0 mi North 6.9 mph - 0.00 in Snow Light Snow
10:53 AM 37.0 °F 31.0 °F 32.0 °F 82% 30.25 in 3.0 mi NNW 8.1 mph - 0.00 in   Haze
11:53 AM 39.9 °F 34.5 °F 30.9 °F 70% 30.23 in 10.0 mi NW 8.1 mph - N/A   Overcast
12:53 PM 41.0 °F 33.5 °F 28.9 °F 62% 30.21 in 10.0 mi NNW 13.8 mph - N/A   Overcast
1:53 PM 39.0 °F 30.3 °F 27.0 °F 62% 30.21 in 10.0 mi NNW 16.1 mph - N/A   Overcast
2:53 PM 39.0 °F 30.3 °F 26.1 °F 60% 30.19 in 10.0 mi North 16.1 mph 23.0 mph N/A   Overcast
3:53 PM 37.4 °F 30.3 °F 26.6 °F 65% 30.20 in 10.0 mi North 10.4 mph - N/A   Overcast
4:53 PM 37.9 °F 30.9 °F 26.1 °F 62% 30.23 in 10.0 mi NNW 10.4 mph - N/A   Overcast
5:53 PM 37.0 °F 31.0 °F 26.1 °F 65% 30.24 in 10.0 mi NNW 8.1 mph - N/A   Overcast
6:53 PM 37.0 °F 29.3 °F 26.1 °F 65% 30.26 in 10.0 mi NNW 11.5 mph - N/A   Overcast
7:53 PM 36.0 °F 28.5 °F 26.1 °F 67% 30.28 in 10.0 mi NNW 10.4 mph - N/A   Overcast
8:53 PM 36.0 °F 27.1 °F 26.1 °F 67% 30.29 in 10.0 mi NNW 13.8 mph 19.6 mph N/A   Overcast
9:53 PM 36.0 °F 28.5 °F 26.1 °F 67% 30.29 in 10.0 mi North 10.4 mph - N/A   Overcast
10:53 PM 36.0 °F 30.3 °F 26.1 °F 67% 30.29 in 10.0 mi NNW 6.9 mph - N/A   Overcast
11:30 PM 35.6 °F 28.0 °F 26.6 °F 70% 30.30 in 10.0 mi NNW 10.4 mph - N/A   Overcast
11:53 PM 35.1 °F 26.4 °F 27.0 °F 72% 30.30 in 9.0 mi NNW 12.7 mph - N/A   Overcast